Flag for Germany Weather past 2 weeks in Bühl, Baden-Württemberg, Germany

Now
59 °F

Sunny.


Feels Like: 60 °F
Forecast: 46 / 71 °F
Wind: 3 mph from North

Location: Karlsruhe - Baden Wurttemberg

Current Time: Aug 20, 2014 at 9:38:31 PM

Latest Report: Aug 20, 2014 at 9:20 PM


Visibility: 10 mi

Pressure: 30.04 "Hg

Humidity: 68%

Dew point: 48 °F

Location of BühlLocation

Historic Weather in Bühl — Graph

°F

Bühl temperature yesterday

Maximum temperature yesterday: 70 °F (at 5:50 PM)
Minimum temperature yesterday: 52 °F (at 1:50 AM)
Average temperature yesterday: 60 °F

Past Weeks' High & Low Weather Summary

 TemperatureHumidityPressure
High82 °F (Aug 10, 3:50 PM)94% (Aug 6, 12:50 AM)30.15 "Hg (Aug 6, 12:50 AM)
Low46 °F (Aug 20, 6:50 AM)33% (Aug 11, 6:20 PM)29.65 "Hg (Aug 13, 9:50 AM)
Average65 °F69%29.94 "Hg
* Reported Aug 5 8:20 PM — Aug 20 8:20 PM, Bühl, Weather by CustomWeather, © 2014

Note: Actual official high and low records may vary slightly from our data, if they occured in-between our weather recording intervals... More about our weather records

Advertising

Bühl weather history for previous 24 hours

 ConditionsComfort  
Time TempWeatherWind HumidityBarometerVisibility
8:20 PM
Aug 20
61 °FSunny.5 mph59%30.01 "Hg10 mi
7:50 PM61 °FSunny.3 mph59%30.01 "Hg10 mi
7:20 PM63 °FSunny.3 mph56%30.01 "Hg10 mi
6:50 PM64 °FSunny.2 mph52%30.01 "Hg10 mi
6:20 PM64 °FSunny.2 mph49%30.01 "Hg10 mi
5:50 PM64 °FSunny.2 mph52%30.01 "Hg10 mi
5:20 PM64 °FSunny.2 mph49%30.01 "Hg10 mi
4:50 PM64 °FSunny.2 mph49%30.01 "Hg10 mi
4:20 PM64 °FSunny.2 mph49%30.04 "Hg10 mi
3:50 PM64 °FSunny.3 mph49%30.04 "Hg10 mi
3:20 PM64 °FPassing clouds.5 mph52%30.04 "HgN/A
2:50 PM64 °FSunny.3 mph49%30.04 "Hg10 mi
2:20 PM64 °FSunny.2 mph49%30.04 "Hg10 mi
1:50 PM64 °FPassing clouds.5 mph49%30.04 "HgN/A
1:20 PM63 °FSunny.3 mph49%30.04 "Hg10 mi
12:50 PM63 °FPassing clouds.5 mph49%30.04 "HgN/A
12:20 PM61 °FSunny.3 mph55%30.04 "Hg10 mi
11:50 AM59 °FSunny.3 mph63%30.07 "Hg10 mi
11:20 AM57 °FSunny.2 mph67%30.07 "Hg10 mi
10:50 AM57 °FPassing clouds.5 mph67%30.07 "HgN/A
10:20 AM57 °FSunny.3 mph67%30.07 "Hg10 mi
9:50 AM57 °FSunny.3 mph72%30.07 "Hg10 mi
9:20 AM57 °FSunny.2 mph72%30.04 "Hg10 mi
8:50 AM55 °FSunny.No wind77%30.04 "Hg10 mi
8:20 AM55 °FSunny.No wind77%30.04 "Hg10 mi
7:50 AM52 °FSunny.No wind82%30.04 "Hg10 mi
7:20 AM48 °FClear.No wind87%30.04 "Hg10 mi
6:50 AM46 °FFog.No wind87%30.04 "HgN/A
6:20 AM48 °FFog.3 mph87%30.04 "HgN/A
5:50 AM48 °FFog.3 mph87%30.04 "HgN/A
5:20 AM48 °FClear.2 mph87%30.04 "Hg10 mi
4:50 AM50 °FClear.2 mph88%30.04 "Hg10 mi
12:20 AM55 °FPassing clouds.5 mph77%30.01 "HgN/A
11:50 PM
Aug 19
55 °FClear.5 mph77%30.01 "Hg10 mi
10:50 PM57 °FClear.2 mph67%29.98 "Hg10 mi
10:20 PM57 °FClear.1 mph67%29.98 "Hg10 mi
9:50 PM61 °FClear.3 mph59%29.98 "Hg10 mi
9:20 PM61 °FPassing clouds.5 mph59%29.98 "HgN/A
Weather by CustomWeather, © 2014

See weather overviewHow to use our weather pages